« Back
NWS Peachtree City, Ga » Text Product » GA Regional Weather Roundup


Printer-friendly Version
Current Version              Previous Versions:   1  2  3  4  5  6  7  8  9  

Regional Weather Roundup

816
ASUS42 KFFC 231003
RWRGA
WEATHER ROUNDUP FOR GEORGIA
NATIONAL WEATHER SERVICE PEACHTREE CITY GA
600 AM EDT SAT JUL 23 2016

NOTE: "FAIR" INDICATES FEW OR NO CLOUDS BELOW 12,000 FEET WITH NO
SIGNIFICANT WEATHER AND/OR OBSTRUCTIONS TO VISIBILITY.

* = USE WITH CAUTION. THE STATIONS MARKED WITH AN ASTERISK MAY NOT
REPORT WEATHER SUCH AS PRECIPITATION, FOG, OR THUNDER AND ARE NOT
QUALITY CONTROLLED BY NWS.

THE REMARK "TC" DENOTES TEMPERATURE READING IN DEGREES CELSIUS.

GAZ001>058-231100-
NORTH GEORGIA

CITY           SKY/WX    TMP DP  RH WIND       PRES   REMARKS
ATLANTA        PTCLDY    77  72  84 SW5       30.03F
ATHENS         PTCLDY    74  72  93 CALM      30.03R
CHAMBLEE       CLEAR     75  71  87 CALM      30.04S
PEACHTREE CITY CLEAR     71  69  93 CALM      30.04S
ROME           CLOUDY    75  72  90 CALM      30.01R
WEST ATLANTA   PTCLDY    74  70  87 CALM      30.03S
GAINESVILLE    CLEAR     74  71  91 CALM      30.06F
CARTERSVILLE   CLEAR     75  73  93 CALM      30.03S


CITY           SKY/WX    TMP DP  RH WIND       PRES   REMARKS
DALTON*        CLOUDY    75  73  94 CALM      30.02R
MARIETTA       CLOUDY    76  72  87 CALM      30.04S
CANTON*        CLEAR     72  68  88 CALM      30.06R FOG
BLAIRSVILLE*     N/A    N/A N/A N/A MISG      30.11R HAZE
$$

GAZ059>098-102>109-231100-
CENTRAL GEORGIA

CITY           SKY/WX    TMP DP  RH WIND       PRES   REMARKS
AUGUSTA-BUSH   CLEAR     72  71  97 CALM      30.01R
AUGUSTA-DANIEL CLEAR     78  71  79 CALM      30.02S
COLUMBUS       CLEAR     76  72  87 NE3       30.00F
MACON          CLEAR     73  71  93 S5        30.01S
ROBINS AFB     CLEAR     73  73 100 S5        30.01R


CITY           SKY/WX    TMP DP  RH WIND       PRES   REMARKS
LAGRANGE*      CLEAR     73  73 100 CALM      30.03R
MILLEDGEVILLE* CLEAR     73  73 100 CALM      30.01S
$$

GAZ099>101-110>166-231100-
SOUTH GEORGIA

CITY           SKY/WX    TMP DP  RH WIND       PRES   REMARKS
SAVANNAH       PTCLDY    76  72  87 CALM      30.02R
VALDOSTA       PTCLDY    72  71  97 CALM      30.01S
ALMA           CLEAR     73  72  96 S3        30.02R
ST SIMONS      CLEAR     77  72  84 CALM      30.01S
FT STEWART     CLEAR     73  71  93 CALM      30.00R
ALBANY         CLEAR     74  71  91 CALM      30.04R
HUNTER AFB     CLEAR     74  74 100 CALM      30.00R
MOODY AFB      PTCLDY    72  70  94 NE2       30.01S
BRUNSWICK      CLEAR     73  73 100 CALM      30.02S


CITY           SKY/WX    TMP DP  RH WIND       PRES   REMARKS
BAINBRIDGE*    CLEAR     72  72 100 CALM      30.02R
MOULTRIE*      CLEAR     73  72  94 CALM      30.03S
VIDALIA*       CLEAR     73  70  88 CALM      30.02R
WAYCROSS*      CLEAR     75  75  99 CALM      30.02S
DOUGLAS*       CLEAR     72  70  94 CALM      30.04R
$$




USA.gov is the U.S. government's official web portal to all federal, state and local government web resources and services.